Flag for Canada Weather past 2 weeks in Kugluktuk, Nunavut, Canada

Now
50 °F

Fog.


Feels Like: 46 °F
Forecast: 47 / 60 °F
Wind: 9 mph from Northeast

Location: Coppermine

Current Time: Jul 29, 2015 at 11:14:38 PM

Latest Report: Jul 29, 2015 at 10:00 PM


Visibility: 0 mi

Pressure: 30.01 "Hg

Humidity: 100%

Dew point: 50 °F

Location of KugluktukLocation

Historic Weather in Kugluktuk — Graph

°F

Kugluktuk temperature yesterday

Maximum temperature yesterday: 66 °F (at 12:00 PM)
Minimum temperature yesterday: 50 °F (at 3:00 AM)
Average temperature yesterday: 58 °F

Past Weeks' High & Low Weather Summary

 TemperatureHumidityPressure
High70 °F (Jul 26, 2:00 PM)100% (Jul 19, 12:00 AM)30.01 "Hg (Jul 19, 12:00 AM)
Low43 °F (Jul 22, 5:00 AM)43% (Jul 24, 3:00 PM)29.63 "Hg (Jul 22, 11:00 PM)
Average54 °F80%29.79 "Hg
* Reported Jul 14 10:00 PM — Jul 29 10:00 PM, Kugluktuk, Weather by CustomWeather, © 2015

Note: Actual official high and low records may vary slightly from our data, if they occured in-between our weather recording intervals... More about our weather records

Advertising

Kugluktuk weather history for previous 24 hours

 ConditionsComfort  
Time TempWeatherWind HumidityBarometerVisibility
10:00 PM
Wed, Jul 29
50 °FFog.9 mph100%30.01 "Hg1 mi
9:00 PM50 °FFog.9 mph100%30.00 "Hg1 mi
8:00 PM52 °FFog.10 mph94%29.98 "Hg2 mi
7:03 PM52 °FFog.12 mph94%29.98 "Hg10 mi
6:00 PM55 °FScattered showers. Fog.10 mph88%29.97 "Hg12 mi
5:00 PM55 °FFog.14 mph88%29.96 "Hg12 mi
4:00 PM57 °FFog.15 mph82%29.95 "Hg12 mi
3:00 PM57 °FFog.14 mph82%29.94 "Hg15 mi
2:00 PM55 °FFog.14 mph82%29.94 "Hg12 mi
1:00 PM54 °FFog.15 mph88%29.93 "Hg12 mi
12:00 PM52 °FDrizzle. Fog.15 mph88%29.93 "Hg8 mi
11:00 AM52 °FDrizzle. Fog.14 mph94%29.92 "Hg8 mi
10:00 AM50 °FFog.13 mph94%29.91 "Hg8 mi
9:00 AM50 °FFog.14 mph94%29.91 "Hg10 mi
8:00 AM48 °FScattered showers. Low clouds.14 mph94%29.90 "Hg12 mi
7:00 AM48 °FFog.13 mph100%29.90 "Hg15 mi
6:00 AM50 °FMostly cloudy.13 mph94%29.88 "Hg15 mi
5:00 AM52 °FMostly cloudy.8 mph94%29.87 "Hg15 mi
4:55 AM52 °FMostly cloudy.9 mph94%29.87 "Hg15 mi
4:00 AM52 °FScattered showers. Mostly cloudy.9 mph94%29.86 "Hg15 mi
3:00 AM52 °FScattered showers. Mostly cloudy.15 mph94%29.85 "Hg15 mi
2:00 AM52 °FSprinkles. Mostly cloudy.23 mph94%29.82 "Hg15 mi
1:00 AM54 °FSprinkles. Mostly cloudy.23 mph88%29.82 "Hg15 mi
12:00 AM55 °FSprinkles. Mostly cloudy.23 mph88%29.81 "Hg15 mi
11:00 PM
Tue, Jul 28
57 °FScattered showers. Partly sunny.7 mph94%29.78 "Hg15 mi
Weather by CustomWeather, © 2015

See weather overviewHow to use our weather pages